CAPE
17 15 28 29 33 47 27 25 18 16 14 9 3 7 10 11 11 39 33 35 45 42 28 20 11 12 8 18 26 17 24 27 44 38 27 27 39 25 28 21 30 43 69 73 68 51 32 5 4 13 25 39 29 17
17 22 31 16 33 44 37 40 20 19 13 11 6 8 5 8 10 32 48 52 51 48 20 24 12 6 2 27 43 27 19 20 39 54 59 53 51 56 38 39 17 27 28 93 37 39 23 1 7 10 20 28 23 25
17 15 31 29 40 44 36 46 39 20 20 18 16 15 13 11 9 13 30 39 38 33 12 3 0 0 9 23 39 64 28 22 31 27 75 59 25 34 22 15 24 21 24 90 39 0 13 16 3 3 9 15 13 23
21 27 27 29 23 31 41 46 37 24 20 22 21 19 21 24 24 26 27 23 24 31 20 0 0 0 0 0 6 34 37 42 26 59 88 63 43 37 24 24 35 13 31 6 20 7 6 14 16 18 15 14 13 15
24 28 25 19 24 26 23 18 18 20 23 22 29 32 36 37 36 74 94 55 33 24 21 12 1 0 0 0 0 3 40 41 73 68 57 48 38 47 52 67 37 10 16 60 44 3 49 8 7 8 20 17 9 12
22 18 22 23 21 30 15 13 11 8 9 9 10 11 7 19 27 73 72 63 37 8 38 18 2 0 0 0 0 7 31 16 45 32 27 32 25 50 66 16 0 0 0 7 24 13 16 17 11 8 18 14 12 7
13 17 24 23 22 15 6 6 7 2 1 6 5 6 7 4 43 47 22 39 11 9 59 28 9 0 0 7 4 10 13 19 34 32 39 29 36 48 61 35 0 0 3 2 4 23 21 22 23 10 10 8 6 11
24 25 24 20 15 11 2 9 12 14 10 11 11 13 16 21 26 36 24 34 15 28 51 23 7 3 1 11 2 27 21 19 32 30 32 32 31 52 36 0 0 1 4 6 14 11 15 16 8 6 4 7 13 15
17 17 21 19 13 16 7 18 19 14 14 17 12 15 40 51 50 20 3 41 83 44 37 35 8 3 0 13 36 30 16 27 21 44 33 34 48 52 0 6 27 25 0 3 9 10 7 6 7 5 10 13 10 11
27 13 11 15 20 16 19 15 19 15 13 26 30 29 21 24 2 36 37 57 52 68 62 28 9 6 2 42 66 57 46 50 51 39 33 50 13 0 8 22 31 48 69 4 4 4 8 10 5 8 1 10 12 10
27 23 20 23 15 14 13 18 21 18 26 35 24 14 16 31 33 36 49 26 23 29 30 16 5 10 12 14 19 28 39 43 38 28 27 23 11 50 52 99 100 26 3 4 2 3 4 11 11 14 5 7 9 14
36 26 23 21 19 14 18 19 19 46 20 18 13 8 7 24 28 24 33 27 21 6 20 14 12 9 13 16 24 34 27 33 19 47 38 16 109 55 67 80 22 1 2 3 0 8 11 2 9 10 12 11 9 5
32 27 29 21 21 20 17 16 32 21 33 20 6 5 12 16 19 19 14 27 27 24 27 12 6 12 12 15 27 30 31 41 28 33 22 51 50 29 33 10 0 2 6 1 0 11 8 7 7 6 9 3 2 1
34 33 20 21 24 19 18 25 35 44 53 17 6 1 4 6 2 1 3 23 5 29 39 37 36 26 32 31 17 73 43 28 45 27 8 73 23 54 18 0 1 1 3 1 1 5 3 5 3 4 4 1 0 1
18 28 28 25 29 27 28 25 35 55 56 14 6 2 0 0 0 12 16 17 12 5 13 35 40 48 62 65 91 57 23 41 17 38 54 3 3 29 26 0 1 2 1 8 1 4 1 0 2 4 3 1 0 0
30 23 20 32 37 31 36 49 29 69 56 18 9 4 5 12 11 15 15 18 5 0 0 4 27 25 36 52 57 55 22 10 35 28 6 1 0 0 3 5 3 6 5 9 2 7 5 1 4 4 6 3 0 0
18 40 34 33 57 34 38 64 67 43 31 15 17 7 10 6 12 17 5 0 6 0 11 8 12 33 43 49 15 29 27 30 12 7 0 0 0 0 0 5 4 7 12 10 1 6 2 2 6 11 12 3 1 0
10 5 23 29 38 65 22 71 48 32 20 11 8 3 7 7 11 8 5 0 0 0 1 1 13 12 22 12 35 15 13 6 8 6 0 0 0 0 0 2 7 3 1 10 3 4 5 3 3 5 8 10 7 9
21 66 41 44 20 8 12 19 12 7 5 8 11 1 0 1 1 0 0 0 1 2 9 16 14 6 5 14 18 21 12 7 4 3 2 0 0 0 0 0 0 1 0 1 0 1 9 6 5 5 7 7 15 15
44 39 54 7 0 1 0 6 3 0 3 1 0 0 1 2 1 4 15 15 18 34 39 30 15 13 25 39 13 9 1 1 2 2 2 0 1 0 0 1 12 12 2 0 2 0 8 7 5 6 9 5 8 6
22 24 36 15 8 5 5 11 3 3 3 2 2 4 7 4 4 5 10 10 29 25 23 22 27 31 15 2 0 0 0 1 3 4 7 9 0 0 0 0 0 14 5 1 5 1 1 9 5 5 4 34 11 8
26 20 38 17 23 14 12 20 23 12 5 6 7 9 9 13 12 5 3 4 3 2 1 1 2 3 3 0 0 0 0 0 0 2 2 1 4 4 8 6 5 10 17 8 2 2 11 8 5 3 6 29 3 7
10 14 25 18 8 15 5 8 25 14 11 6 4 2 3 5 1 0 4 3 4 2 0 0 0 0 0 0 0 0 0 0 3 5 9 7 6 11 11 12 17 29 17 1 2 1 13 2 3 17 14 13 32 24
3 17 2 3 6 0 0 15 17 12 10 7 4 2 1 12 13 27 16 12 5 0 0 0 0 0 0 0 1 0 2 5 8 8 11 10 8 2 4 7 13 21 12 6 4 2 10 10 2 9 31 25 31 28
0 6 18 3 10 1 5 8 6 14 9 1 5 8 11 23 30 16 7 6 6 3 1 1 2 2 4 4 4 4 4 10 10 9 6 12 13 10 8 8 12 6 5 11 3 4 10 17 19 31 12 23 2 1
0 0 3 5 9 8 3 1 2 3 1 2 7 8 15 27 12 14 5 7 5 3 8 10 11 8 7 8 8 8 5 7 9 12 1 7 9 19 19 20 12 3 15 7 3 6 10 11 20 34 32 24 2 2
0 0 1 1 16 10 17 12 9 22 13 5 25 20 33 35 33 3 7 4 2 6 7 9 11 12 12 12 11 10 7 9 11 16 15 9 15 11 20 22 14 12 11 11 11 10 6 12 35 47 36 23 50 55
10 0 0 1 9 28 23 18 25 21 18 15 23 34 24 9 1 2 2 3 5 4 6 7 9 11 14 13 11 16 16 16 21 23 38 32 21 21 15 12 0 2 3 9 5 7 4 18 38 40 38 33 35 16
21 5 0 0 0 10 28 21 11 14 26 49 36 12 2 0 3 4 3 3 4 7 8 7 7 12 11 8 6 9 13 18 14 6 1 8 16 5 4 3 4 0 7 6 0 0 6 15 32 44 45 31 27 0
2 4 5 0 0 8 31 40 58 9 3 2 1 1 0 3 5 1 3 3 6 8 8 10 11 13 11 7 11 2 2 10 12 10 12 5 10 10 6 1 1 5 6 3 2 2 0 5 9 22 27 10 32 24
0 3 5 5 2 5 7 5 5 5 6 4 2 4 2 6 8 5 4 4 6 7 11 6 4 8 9 5 4 6 1 1 3 5 5 4 11 4 0 3 7 6 6 4 5 22 27 37 30 8 15 25 38 39
1 2 2 0 5 1 2 7 15 12 8 8 4 3 1 3 4 7 6 5 6 7 2 5 5 4 5 6 4 5 1 3 6 6 4 2 4 2 0 0 1 3 5 6 9 5 7 25 30 33 9 28 22 36
1 1 0 0 1 3 2 0 25 5 7 7 4 2 2 2 0 4 4 4 6 8 7 7 5 4 1 1 3 4 1 2 1 2 3 1 1 1 2 1 5 6 10 11 12 27 41 46 44 47 36 8 6 4
CIN
0 0 0 0 -1 0 -1 -1 -2 -2 -1 0 0 -3 -5 -4 -1 0 0 -1 0 0 0 0 0 0 0 0 0 0 0 0 0 0 0 0 0 0 0 0 0 0 0 0 0 0 0 -1 -1 0 0 0 0 0
0 0 0 -2 -1 0 0 0 -1 -2 -2 -1 0 -1 -1 -3 -4 0 0 0 -1 0 0 0 0 0 -2 0 0 0 0 0 0 0 0 0 0 0 0 0 0 0 0 0 0 0 0 0 0 0 0 0 0 0
0 0 0 -1 -1 0 -1 0 0 -1 -1 -1 -2 -2 -2 -1 -1 0 0 0 0 0 0 0 0 0 0 0 0 0 0 0 0 0 0 0 0 0 0 0 0 0 0 0 0 0 0 0 0 0 0 0 0 0
0 0 0 0 -2 0 -1 0 0 -2 -2 -2 -1 -1 0 0 0 0 0 0 0 0 0 0 0 0 0 0 0 0 0 0 0 0 0 0 0 0 0 0 0 0 0 0 0 0 0 0 0 0 0 0 0 0
0 0 0 -2 -2 -1 -1 -2 -2 -3 -2 -2 0 -1 0 0 0 0 0 0 0 0 0 0 0 0 0 0 0 0 0 0 0 0 0 0 0 0 0 0 0 0 0 0 0 0 0 0 0 0 0 0 0 0
0 -1 -2 -2 -2 0 -4 -5 -6 -6 -7 -9 -8 -4 -4 -4 -4 0 0 0 0 0 0 0 0 0 0 0 0 0 0 -1 0 0 0 0 0 0 0 0 0 0 0 0 0 0 0 0 0 0 0 0 0 0
0 0 0 0 0 -1 -4 -3 -1 -4 -6 -3 -3 -4 -1 -5 0 0 0 0 -2 -6 0 0 0 0 0 0 0 0 0 -2 0 0 0 0 0 0 0 0 0 0 0 0 0 0 0 0 0 0 0 0 0 0
0 0 0 0 0 0 0 0 0 -1 -1 -1 -1 -1 -2 -1 -1 0 0 -1 -3 -2 0 0 0 0 0 0 0 0 0 0 0 0 0 0 0 0 0 0 0 0 0 0 0 0 0 0 0 0 0 0 0 0
0 0 0 0 0 0 0 0 0 0 0 0 -1 -1 0 0 0 0 -7 -2 0 0 0 0 0 0 0 0 0 0 -1 0 0 0 0 0 0 0 -6 -3 0 0 0 0 -1 0 0 0 0 0 0 0 0 0
0 0 0 0 0 0 0 0 0 0 0 0 0 0 0 0 -5 0 0 0 0 0 0 0 0 0 0 0 0 0 0 0 0 0 0 0 0 -1 -4 -6 -4 -6 -1 0 0 0 0 0 0 0 0 0 0 0
0 0 0 0 0 0 0 0 0 0 0 0 0 0 0 -1 0 0 0 0 0 0 0 0 0 0 0 0 0 0 0 0 0 0 0 0 -8 -3 -11 -9 -14 -33 0 0 0 0 0 0 0 0 0 0 0 0
0 0 0 0 0 0 0 0 0 0 0 0 0 0 0 0 0 0 0 0 0 0 0 0 0 0 0 0 0 0 0 0 0 0 0 0 -3 -5 -9 -16 -47 0 0 0 0 0 0 0 0 0 0 0 0 0
0 0 0 0 0 0 0 0 0 -1 0 0 0 0 0 0 0 0 0 0 0 0 0 0 0 0 0 0 0 0 0 0 0 0 0 -3 0 -7 -12 -59 0 0 0 -2 0 0 0 0 0 0 0 0 0 0
0 0 0 0 0 0 0 0 0 0 0 0 0 0 0 0 0 0 0 0 -6 0 0 0 0 -1 -6 -7 0 0 0 0 0 0 -5 -3 0 -9 -34 -15 0 0 0 0 -2 0 0 0 0 0 0 0 0 0
0 0 0 0 0 0 0 0 0 0 0 0 0 0 0 0 0 0 0 0 0 0 0 0 0 0 0 0 0 0 -4 0 0 -1 -1 -1 0 -3 -8 0 0 0 -1 0 0 0 0 0 0 0 0 0 0 0
0 0 0 0 0 0 0 0 -1 0 0 0 0 0 0 0 0 0 0 0 0 0 0 0 0 0 0 0 0 0 -1 0 -1 -16 0 0 0 0 -22 -12 0 0 0 0 0 0 0 0 0 0 0 0 0 0
0 0 0 0 0 0 0 0 0 0 0 0 0 0 0 0 0 0 0 0 0 0 0 0 0 0 0 0 0 0 0 0 -2 0 0 0 0 0 0 0 0 0 0 0 0 0 0 0 0 0 0 0 0 0
-4 -5 -1 -3 0 0 -3 0 0 0 0 0 0 0 0 0 0 0 0 0 0 0 0 0 0 0 0 0 -1 0 0 0 0 0 0 0 0 0 0 -29 0 0 0 0 -2 0 0 0 0 0 0 0 0 0
0 0 0 -1 0 -1 -1 0 0 0 0 0 0 0 0 0 0 0 0 0 0 0 0 0 0 0 0 0 0 0 0 0 0 0 0 0 0 0 0 0 0 0 0 0 0 0 0 0 0 0 0 0 0 0
-4 0 0 0 0 0 0 0 0 0 0 0 0 0 0 0 0 0 0 0 0 0 0 0 0 0 0 0 -1 0 0 0 0 0 0 0 0 0 0 -3 -1 0 -1 -1 0 0 0 0 0 0 0 0 0 0
0 0 0 -1 0 0 0 0 0 0 0 0 0 0 0 0 0 0 0 0 0 0 0 0 0 0 0 -1 -13 0 0 0 0 0 0 0 0 0 0 0 0 0 0 0 0 0 0 0 0 0 0 0 0 0
0 -5 0 -1 0 0 0 0 0 0 0 0 0 0 0 0 0 0 0 0 0 0 0 0 0 -1 0 0 0 0 0 0 0 0 0 0 0 0 0 0 0 0 0 0 0 0 0 -9 0 0 0 0 0 0
-1 -2 0 0 0 0 -1 -1 0 0 0 0 0 0 0 0 0 0 0 0 0 0 0 0 0 0 0 0 0 0 0 0 0 0 0 0 0 0 0 0 0 0 0 0 0 0 0 0 0 -5 -1 0 0 0
-12 0 -3 0 0 0 0 0 0 0 0 0 0 0 0 0 0 0 0 0 0 0 0 0 0 0 0 0 0 0 0 0 0 0 0 0 0 0 0 0 0 0 0 0 0 0 0 0 0 -2 0 0 0 0
0 0 0 0 0 0 0 0 0 0 0 0 0 0 0 0 0 0 0 0 0 0 0 0 0 0 0 0 0 0 0 0 0 0 0 0 0 0 0 0 0 0 0 0 -1 0 0 0 -9 0 -5 -1 0 0
0 0 0 0 0 0 0 0 0 0 0 0 0 0 0 0 0 0 0 0 0 0 0 0 0 0 0 0 0 0 0 0 0 0 0 0 0 0 0 0 0 0 0 0 0 0 0 0 -3 0 0 0 0 0
0 0 0 0 0 0 0 0 0 0 0 -2 0 0 0 0 0 0 0 0 0 0 0 0 0 0 0 0 0 0 0 0 0 0 0 0 0 0 0 0 0 0 0 0 0 0 0 -8 0 0 0 0 0 0
0 0 0 0 0 0 0 0 0 -1 0 -2 -2 -1 0 -6 0 0 0 0 0 0 0 0 0 0 0 0 0 0 0 0 0 0 0 0 0 0 0 0 0 -1 0 0 0 0 0 -4 0 0 0 0 0 0
0 0 0 0 0 0 0 0 -1 0 -13 -3 0 -1 0 0 0 0 0 0 0 0 0 0 0 0 0 0 0 0 0 0 0 0 0 0 0 0 0 0 0 0 0 0 0 0 -17 -8 0 0 0 0 0 0
0 0 0 0 0 -3 0 -6 0 -2 0 0 0 0 0 0 0 0 0 0 0 0 0 0 0 0 0 0 0 0 0 0 0 0 0 0 0 0 0 0 0 0 0 0 0 0 0 -15 0 0 0 0 0 0
0 0 0 0 0 -3 -2 0 0 0 0 0 0 0 0 0 0 0 0 0 0 0 0 0 0 0 0 0 0 0 0 0 0 0 0 0 0 0 0 0 0 0 0 0 -6 0 0 0 0 0 0 0 0 0
0 0 0 0 0 0 0 0 0 0 0 0 0 0 0 0 0 0 0 0 0 0 0 0 0 0 0 0 0 0 0 0 0 0 0 0 0 0 0 0 0 0 -5 -4 0 0 0 0 0 0 0 0 0 0
0 0 0 0 0 -1 0 0 0 0 0 0 0 0 0 0 0 0 0 0 0 0 0 0 0 0 0 0 0 0 0 0 0 0 0 0 0 0 0 0 0 0 -1 0 0 0 0 0 0 0 0 0 0 0
Wind_Speed
21 20 19 17 17 17 18 18 15 13 12 11 12 9 9 8 7 4 3 6 4 4 11 16 14 12 10 8 9 3 6 6 4 5 4 4 5 6 7 11 9 11 6 6 8 9 13 3 6 15 13 18 20 26
20 20 19 17 16 17 17 18 17 16 13 12 12 10 10 9 8 7 4 6 5 5 5 6 8 11 18 22 13 7 7 3 2 4 4 4 6 5 12 14 15 16 16 13 13 11 16 19 22 23 23 24 24 25
19 19 19 19 17 17 16 17 17 16 15 15 14 13 12 11 11 10 5 4 3 5 10 12 15 18 20 21 18 12 12 16 15 11 4 5 8 8 11 10 14 14 15 14 18 17 20 20 24 24 25 24 22 23
20 19 19 18 17 15 16 17 17 16 15 15 15 15 15 15 14 14 7 5 3 3 6 4 2 7 7 13 19 19 20 14 5 5 5 7 9 8 12 14 16 14 17 20 23 25 25 22 19 19 22 24 24 26
21 19 20 17 17 16 16 15 14 12 12 11 13 13 14 14 15 10 7 7 9 6 5 8 15 14 7 17 19 17 17 15 8 6 7 11 9 9 12 15 20 16 21 15 18 22 21 25 25 25 24 24 23 22
20 20 19 19 18 17 16 15 13 11 10 9 7 8 7 6 5 3 2 8 7 4 3 6 4 8 7 6 11 14 11 8 6 3 5 9 17 8 7 13 25 20 18 19 21 22 23 25 25 24 22 20 23 22
21 20 20 19 19 19 17 15 14 12 10 10 9 9 9 8 5 4 1 4 6 5 3 5 5 2 1 2 2 4 10 3 5 3 6 12 12 5 6 17 31 20 18 20 20 21 22 20 16 21 22 23 23 21
23 21 20 19 19 19 18 17 16 13 10 10 10 8 7 7 7 8 8 5 7 2 3 4 5 4 4 3 3 5 5 5 6 5 5 7 6 6 10 20 18 16 14 14 15 13 14 15 19 19 19 19 20 18
22 22 22 20 19 19 16 16 16 13 11 11 8 5 3 4 4 3 4 16 5 3 3 4 4 2 2 3 3 4 4 5 5 7 5 5 6 9 14 16 14 13 11 17 14 14 16 15 18 19 19 20 19 17
22 21 20 20 19 18 17 16 15 14 12 13 6 3 4 4 5 9 4 6 6 5 4 6 6 7 2 3 3 2 4 4 4 5 3 5 10 19 18 15 13 10 7 9 13 14 15 16 17 18 19 17 16 15
23 22 20 21 19 18 17 16 17 16 13 4 4 3 3 6 4 4 5 7 7 6 7 6 12 11 5 6 5 3 3 3 5 4 4 3 5 6 3 4 3 4 4 7 9 11 13 16 17 17 18 16 13 13
24 22 21 20 21 19 18 18 18 10 4 5 5 4 3 4 4 6 6 6 8 7 7 5 5 7 4 5 6 5 5 4 6 5 4 4 3 4 4 4 3 4 5 8 8 11 13 15 15 15 15 14 11 11
22 22 21 20 19 19 18 17 19 13 12 4 3 5 4 4 9 8 9 6 5 5 7 6 5 4 5 6 5 5 7 6 3 4 5 5 1 2 4 2 3 4 6 6 8 9 12 14 14 13 13 10 9 6
24 22 20 19 19 18 17 18 20 15 3 4 6 7 7 7 7 7 7 1 4 3 4 4 3 5 4 7 4 6 4 3 5 5 5 1 4 5 3 3 5 6 7 7 8 9 11 11 12 11 9 9 6 3
22 19 18 17 18 18 19 18 19 7 4 5 5 6 8 6 4 2 2 3 1 2 3 3 3 4 4 5 5 3 4 6 5 4 3 6 9 7 7 6 5 6 5 7 7 8 9 11 10 11 9 7 5 4
20 15 10 17 17 19 19 17 5 3 3 4 6 4 4 4 5 3 5 4 2 1 2 3 4 4 8 5 7 8 5 6 2 2 4 6 10 11 9 7 6 6 6 7 6 7 7 8 9 9 8 8 6 5
18 3 16 19 21 20 19 4 3 6 6 5 4 5 5 2 3 2 2 2 1 3 3 3 5 8 2 5 6 6 4 6 4 4 5 8 10 11 9 7 5 7 6 6 6 6 7 7 5 6 7 8 6 6
3 9 20 21 17 15 2 2 4 5 7 4 4 4 5 5 4 3 4 4 4 4 5 5 5 8 7 11 7 3 3 2 3 4 7 9 11 10 7 7 6 6 7 7 6 6 6 6 5 5 5 5 5 5
9 12 21 21 9 4 3 5 3 3 4 2 4 5 4 4 5 6 6 6 6 5 3 4 9 7 10 10 8 6 6 6 7 8 8 11 11 9 9 8 6 6 5 7 7 5 4 5 5 4 4 3 2 3
17 18 20 14 3 3 4 3 3 3 3 3 4 6 6 5 4 4 5 5 6 7 9 7 10 9 8 7 7 8 9 10 10 11 10 9 8 11 10 9 7 7 5 5 6 6 5 4 3 3 3 3 3 2
10 10 15 6 2 2 2 4 4 2 2 4 3 5 5 4 6 6 6 5 6 8 10 9 9 8 9 8 8 9 10 10 10 10 11 10 10 11 11 9 9 8 6 5 6 6 5 4 2 1 2 2 1 1
5 11 3 1 2 3 1 2 2 2 3 3 3 4 5 7 8 9 7 9 8 10 10 9 8 5 6 9 9 11 12 14 13 11 12 12 11 10 9 8 8 8 8 7 6 7 6 4 3 3 1 1 1 1
9 3 3 3 3 4 2 3 6 5 4 3 3 3 3 3 3 3 4 4 1 2 1 1 4 7 8 11 12 14 14 14 11 11 10 10 10 10 10 10 9 8 9 7 6 7 6 4 4 3 3 2 2 2
3 3 4 5 4 4 2 4 3 4 4 6 4 4 4 4 3 4 5 2 3 2 2 5 5 6 7 9 9 10 10 9 11 11 11 12 11 11 10 10 9 8 9 6 8 7 7 6 5 5 4 3 3 3
4 4 3 5 4 5 5 4 4 5 5 7 6 5 3 3 4 4 7 3 3 1 4 5 6 6 8 9 9 10 12 10 11 13 12 11 12 11 11 10 10 9 6 7 7 8 7 6 5 5 5 5 6 6
4 5 7 8 5 5 6 5 6 7 3 4 5 3 2 4 4 5 2 2 0 2 4 6 7 8 8 8 12 12 12 10 11 13 14 11 12 12 12 11 9 7 7 9 9 10 10 8 7 8 7 7 6 7
4 5 4 3 3 4 3 3 3 3 5 5 3 4 4 5 5 3 3 1 2 3 5 6 6 8 10 11 11 11 12 12 13 14 14 13 13 12 11 10 12 7 8 10 9 11 11 9 8 7 7 6 5 5
2 4 5 6 5 3 3 3 4 4 4 1 1 5 4 4 1 3 2 2 3 5 5 6 6 7 9 10 11 11 12 11 13 14 13 14 14 13 14 12 11 10 8 9 9 9 10 9 8 8 8 7 6 5
4 3 4 3 2 4 5 5 4 3 1 2 4 2 1 2 2 1 1 3 4 4 5 6 7 8 8 9 9 9 10 10 13 18 20 13 9 9 11 10 9 8 8 9 10 10 11 9 9 7 8 7 6 5
3 2 3 3 4 6 4 3 1 2 1 1 2 3 2 2 2 2 3 3 4 4 5 5 6 7 9 11 12 14 10 9 7 10 13 14 11 3 7 8 9 9 9 9 10 9 10 9 9 7 7 7 6 5
2 2 3 3 3 1 0 0 1 2 3 2 1 2 3 3 3 2 2 4 5 4 5 7 7 7 9 11 11 12 13 9 15 18 15 13 8 6 7 8 9 9 9 11 10 10 10 9 8 10 9 9 8 7
1 2 1 3 3 1 2 3 3 4 4 4 3 3 3 4 4 3 3 5 4 5 6 7 8 8 8 9 9 9 13 12 13 14 18 12 9 6 9 8 8 9 10 11 10 11 12 10 8 8 9 9 9 7
2 2 2 3 3 3 2 3 4 4 3 3 3 2 1 1 2 2 1 2 3 6 7 8 8 7 8 9 10 10 13 11 17 18 20 18 17 13 8 6 7 9 11 10 9 9 10 11 9 9 10 10 9 9
Wind_Direction
221 214 219 217 216 208 209 207 207 211 215 217 219 225 225 222 216 206 247 197 212 249 268 259 247 250 255 259 256 278 300 195 227 231 250 232 250 246 273 270 281 285 266 240 236 254 267 315 264 238 272 306 310 307
218 213 214 212 217 206 207 204 203 200 206 213 216 217 215 221 223 201 241 198 214 237 268 313 286 268 254 252 253 226 242 236 208 252 228 289 261 260 280 280 283 272 268 275 281 274 303 305 298 288 285 287 292 293
206 211 212 211 212 209 208 202 199 196 203 208 204 208 211 211 215 221 232 232 242 283 280 252 252 249 231 241 249 248 246 251 259 257 273 266 257 269 270 272 290 266 263 260 271 269 272 285 290 291 290 290 292 287
201 205 205 208 205 201 199 195 195 199 207 211 212 211 211 213 213 212 212 212 200 285 277 300 306 252 235 229 227 231 244 256 277 245 238 249 257 263 269 280 278 272 288 275 274 278 280 274 282 298 300 296 297 293
197 198 196 197 200 192 184 182 186 193 201 209 217 220 218 215 216 220 217 218 209 232 293 290 292 275 221 236 238 234 229 230 226 219 223 247 255 261 256 265 261 267 268 267 272 282 293 290 294 295 296 292 291 296
195 193 190 192 192 185 170 162 165 170 172 183 187 173 159 151 152 161 264 204 206 176 272 288 307 263 272 245 230 221 219 218 209 218 241 256 255 265 273 267 273 275 269 264 271 281 289 288 293 295 297 311 301 296
192 187 178 173 168 165 165 168 174 174 189 191 195 200 202 194 186 204 307 53 169 130 246 275 262 242 280 126 99 175 199 179 216 225 235 257 260 229 255 269 277 287 291 283 281 285 284 290 305 311 302 302 306 298
183 180 177 175 175 173 173 175 178 177 183 182 183 183 187 196 212 236 225 143 133 177 238 262 266 267 176 182 174 165 161 190 203 230 236 243 244 206 245 255 273 288 300 288 292 306 297 290 291 301 306 302 297 295
178 178 176 177 175 173 174 171 170 175 173 171 165 160 144 190 203 207 196 157 192 271 256 222 243 293 167 202 191 181 180 208 213 216 226 231 223 228 244 265 289 312 304 303 313 310 304 314 306 304 305 304 306 300
176 176 174 173 171 170 172 169 168 163 163 150 141 172 180 193 144 114 137 165 190 212 229 251 226 239 247 209 195 211 209 247 247 215 142 239 253 256 270 287 292 316 318 325 313 317 319 308 310 308 305 305 301 298
173 170 173 171 170 164 169 171 164 162 155 168 174 177 107 81 183 209 189 188 187 222 204 228 226 230 203 238 241 247 240 229 249 150 229 238 259 263 274 287 306 316 331 316 314 300 303 304 310 311 310 307 305 303
171 170 169 172 168 169 170 168 169 162 165 153 119 111 153 192 216 222 202 187 203 229 170 203 202 205 200 207 220 207 242 219 253 136 232 252 235 291 305 305 299 312 314 317 303 307 316 321 317 313 309 309 308 305
168 171 174 170 171 172 171 175 170 148 128 136 180 157 187 162 223 223 203 198 194 192 162 173 179 167 185 207 213 228 221 227 141 216 226 242 192 338 352 290 280 283 296 303 305 317 325 329 329 323 315 312 302 307
173 167 169 174 174 171 173 173 167 151 153 186 171 188 214 190 227 213 229 293 59 112 155 188 190 198 182 187 246 244 194 250 230 226 228 253 11 345 331 319 302 320 302 306 313 325 318 329 327 323 324 317 314 342
163 164 165 170 172 176 172 172 171 161 192 190 199 217 214 231 250 259 254 242 146 274 216 189 239 222 213 245 225 247 222 229 228 234 55 11 335 340 335 323 303 309 297 292 311 322 323 332 335 336 341 335 359 7
149 153 178 174 175 174 172 167 131 153 209 226 221 231 225 240 217 222 232 239 155 141 198 232 239 228 228 218 214 218 223 229 133 51 26 356 357 347 327 312 287 304 303 293 297 313 321 334 333 329 339 356 8 25
155 150 180 188 180 169 158 124 146 183 209 212 212 224 250 286 269 202 227 259 126 248 232 227 235 231 257 229 225 221 246 85 57 12 356 332 333 333 331 306 279 284 298 295 292 308 321 320 317 333 355 355 360 18
132 150 164 165 162 145 79 181 186 199 209 200 210 216 207 235 230 228 208 254 256 234 229 240 299 249 250 259 259 66 73 8 351 338 322 323 325 325 325 307 308 309 302 296 282 292 298 316 328 340 342 348 344 5
144 146 149 149 140 110 130 158 219 230 219 189 230 240 238 252 239 253 254 253 247 251 254 230 237 243 246 261 292 330 330 327 321 319 311 310 313 312 305 304 281 277 271 285 285 280 288 297 312 322 331 335 357 356
134 137 138 135 124 131 133 128 192 226 204 198 223 241 239 248 259 246 244 246 234 216 212 230 246 262 285 309 318 310 305 309 306 301 299 298 305 308 304 309 296 287 258 262 269 262 259 262 285 308 340 333 317 15
117 149 141 117 93 53 44 148 173 214 216 227 217 237 242 235 245 243 240 238 236 241 251 253 266 278 289 312 304 300 299 300 298 298 298 294 295 295 290 289 283 262 246 234 247 250 240 252 281 294 301 343 328 349
109 114 106 167 105 131 224 198 260 129 219 229 214 227 251 259 262 259 264 251 254 251 253 266 281 313 286 283 296 295 292 291 286 281 269 271 272 276 277 273 272 265 253 231 224 239 234 208 208 181 222 240 215 200
98 96 103 137 136 184 155 186 207 201 223 211 210 231 227 228 230 186 233 221 137 86 25 336 314 300 291 293 294 290 290 292 289 285 282 278 282 283 279 269 265 258 249 237 222 227 214 176 187 186 163 203 186 166
129 132 150 170 172 162 190 197 212 231 209 219 224 238 241 224 192 230 241 210 117 129 17 350 326 310 301 292 287 298 306 306 295 286 276 272 273 271 269 271 262 256 245 228 213 204 191 185 178 181 164 173 186 172
148 153 183 162 182 156 183 199 216 211 214 217 238 243 229 210 228 236 252 147 177 21 356 340 326 317 308 303 301 301 306 300 295 291 278 277 275 276 272 264 257 251 217 205 195 178 174 167 173 174 170 171 169 163
185 168 189 180 174 186 191 190 198 208 204 212 231 237 208 215 222 235 149 137 22 345 341 329 321 312 302 302 305 307 309 307 292 277 272 271 267 265 266 268 262 238 206 201 181 172 166 167 180 175 170 168 163 155
199 181 179 203 204 190 203 210 184 193 193 210 215 200 218 228 225 130 140 128 332 336 318 312 304 301 303 304 303 304 304 297 278 274 282 274 267 264 256 253 255 244 191 190 169 171 159 165 169 169 159 155 165 158
218 178 187 181 204 210 194 176 194 211 231 266 245 212 237 233 130 108 102 31 329 314 310 309 307 304 307 307 306 305 302 302 293 279 270 257 242 238 237 242 250 223 176 167 159 160 149 153 152 154 153 159 154 155
196 154 159 163 195 193 218 216 234 220 131 216 262 259 238 54 62 79 52 344 322 315 326 329 327 325 317 320 312 310 313 314 316 317 314 305 264 225 210 216 204 167 158 145 147 144 144 145 148 148 143 146 142 141
152 192 190 162 192 212 221 204 229 127 100 63 101 125 145 149 116 57 15 345 327 332 330 321 326 330 333 333 327 324 324 320 319 319 307 295 298 169 179 167 156 149 143 143 136 125 114 121 124 125 131 136 143 143
339 226 222 206 232 225 135 340 212 182 169 149 125 240 159 138 172 202 342 339 314 300 315 333 330 334 334 334 332 324 320 326 328 326 320 292 256 172 150 143 131 129 131 127 128 133 137 137 137 145 147 149 149 152
238 222 224 231 227 152 258 230 214 207 179 187 155 142 158 197 198 145 30 332 336 337 343 325 323 320 326 325 323 314 308 308 324 335 344 336 340 72 96 101 112 120 124 129 131 139 147 146 149 153 159 157 160 164
230 207 231 261 238 224 152 269 216 174 190 183 151 157 141 267 184 79 48 20 331 328 330 321 312 303 309 314 331 326 326 321 333 346 356 9 17 36 54 78 105 113 118 126 135 143 146 144 143 135 126 123 119 115